Year,Month,Day,Hour,Minute,Value (Times are PST for temperature in C)
2023,03,29,12,35,12.10
2023,03,29,12,36,12.10
2023,03,29,12,37,12.10
2023,03,29,12,38,12.10
2023,03,29,12,39,12.10
2023,03,29,12,40,12.10
2023,03,29,12,41,12.10
2023,03,29,12,42,12.10
2023,03,29,12,43,12.10
2023,03,29,12,44,12.20
2023,03,29,12,45,12.30
2023,03,29,12,46,12.30
2023,03,29,12,47,12.30
2023,03,29,12,48,12.20
2023,03,29,12,49,12.10
2023,03,29,12,50,12.10
2023,03,29,12,51,12.00
2023,03,29,12,52,12.00
2023,03,29,12,53,12.00
2023,03,29,12,54,12.00
2023,03,29,12,55,12.10
2023,03,29,12,56,12.10
2023,03,29,12,57,12.20
2023,03,29,12,58,12.30
2023,03,29,12,59,12.40
2023,03,29,13,00,12.40
2023,03,29,13,01,12.40
2023,03,29,13,02,12.50
2023,03,29,13,03,12.50
2023,03,29,13,04,12.50
2023,03,29,13,05,12.50
2023,03,29,13,06,12.60
2023,03,29,13,07,12.60
2023,03,29,13,08,12.60
2023,03,29,13,09,12.60
2023,03,29,13,10,12.60
2023,03,29,13,11,12.60
2023,03,29,13,12,12.70
2023,03,29,13,13,12.70
2023,03,29,13,14,12.80
2023,03,29,13,15,12.90
2023,03,29,13,16,12.80
2023,03,29,13,17,12.80
2023,03,29,13,18,12.70
2023,03,29,13,19,12.70
2023,03,29,13,20,12.60
2023,03,29,13,21,12.60
2023,03,29,13,22,12.70
2023,03,29,13,23,12.70
2023,03,29,13,24,12.70
2023,03,29,13,25,12.70
2023,03,29,13,26,12.70
2023,03,29,13,27,12.70
2023,03,29,13,28,12.70
2023,03,29,13,29,12.70
2023,03,29,13,30,12.70
2023,03,29,13,31,12.70
2023,03,29,13,32,12.70
2023,03,29,13,33,12.70
2023,03,29,13,34,12.80
2023,03,29,13,35,12.90
2023,03,29,13,36,12.90
2023,03,29,13,37,13.00
2023,03,29,13,38,13.00
2023,03,29,13,39,13.00
2023,03,29,13,40,13.00
2023,03,29,13,41,13.10
2023,03,29,13,42,13.20
2023,03,29,13,43,13.30
2023,03,29,13,44,13.40
2023,03,29,13,45,13.50
2023,03,29,13,46,13.60
2023,03,29,13,47,13.60
2023,03,29,13,48,13.60
2023,03,29,13,49,13.50
2023,03,29,13,50,13.50
2023,03,29,13,51,13.50
2023,03,29,13,52,13.50
2023,03,29,13,53,13.60
2023,03,29,13,54,13.70
2023,03,29,13,55,13.60
2023,03,29,13,56,13.60
2023,03,29,13,57,13.50
2023,03,29,13,58,13.40
2023,03,29,13,59,13.40
2023,03,29,14,00,13.40
2023,03,29,14,01,13.40
2023,03,29,14,02,13.40
2023,03,29,14,03,13.40
2023,03,29,14,04,13.40
2023,03,29,14,05,13.40
2023,03,29,14,06,13.50
2023,03,29,14,07,13.50
2023,03,29,14,08,13.50
2023,03,29,14,09,13.50
2023,03,29,14,10,13.50
2023,03,29,14,11,13.60
2023,03,29,14,12,13.60
2023,03,29,14,13,13.70
2023,03,29,14,14,13.80
2023,03,29,14,15,13.80
2023,03,29,14,16,13.90
2023,03,29,14,17,13.90
2023,03,29,14,18,13.90
2023,03,29,14,19,13.90
2023,03,29,14,20,14.00
2023,03,29,14,21,14.00
2023,03,29,14,22,14.00
2023,03,29,14,23,14.00
2023,03,29,14,24,14.10
2023,03,29,14,25,14.10
2023,03,29,14,26,14.20
2023,03,29,14,27,14.20
2023,03,29,14,28,14.20
2023,03,29,14,29,14.20
2023,03,29,14,30,14.20
2023,03,29,14,31,14.20
2023,03,29,14,32,14.20
2023,03,29,14,33,14.20
2023,03,29,14,34,14.20
2023,03,29,14,35,14.20
2023,03,29,14,36,14.20
2023,03,29,14,37,14.20
2023,03,29,14,38,14.20
2023,03,29,14,39,14.20
2023,03,29,14,40,14.20
2023,03,29,14,41,14.30
2023,03,29,14,42,14.20
2023,03,29,14,43,14.20
2023,03,29,14,44,14.10
2023,03,29,14,45,14.00
2023,03,29,14,46,13.90
2023,03,29,14,47,13.90
2023,03,29,14,48,13.80
2023,03,29,14,49,13.80
2023,03,29,14,50,13.80
2023,03,29,14,51,13.70
2023,03,29,14,52,13.70
2023,03,29,14,53,13.70
2023,03,29,14,54,13.80
2023,03,29,14,55,13.80
2023,03,29,14,56,13.90
2023,03,29,14,57,13.90
2023,03,29,14,58,13.90
2023,03,29,14,59,14.00
2023,03,29,15,00,14.10
2023,03,29,15,01,14.10
2023,03,29,15,02,14.00
2023,03,29,15,03,14.00
2023,03,29,15,04,13.90
2023,03,29,15,05,13.90
2023,03,29,15,06,13.90
2023,03,29,15,07,13.90
2023,03,29,15,08,13.90
2023,03,29,15,09,13.90
2023,03,29,15,10,14.00
2023,03,29,15,11,13.90
2023,03,29,15,12,13.90
2023,03,29,15,13,13.90
2023,03,29,15,14,13.90
2023,03,29,15,15,13.90
2023,03,29,15,16,13.90
2023,03,29,15,17,13.90
2023,03,29,15,18,13.90
2023,03,29,15,19,13.90
2023,03,29,15,20,13.90
2023,03,29,15,21,13.90
2023,03,29,15,22,13.90
2023,03,29,15,23,13.90
2023,03,29,15,24,13.80
2023,03,29,15,25,13.80
2023,03,29,15,26,13.70
2023,03,29,15,27,13.70
2023,03,29,15,28,13.80
2023,03,29,15,29,13.90
2023,03,29,15,30,14.00
2023,03,29,15,31,14.10
2023,03,29,15,32,14.20
2023,03,29,15,33,14.20
2023,03,29,15,34,14.10
2023,03,29,15,35,14.10
2023,03,29,15,36,14.00
2023,03,29,15,37,13.90
2023,03,29,15,38,13.90
2023,03,29,15,39,13.90
2023,03,29,15,40,13.90
2023,03,29,15,41,13.90
2023,03,29,15,42,13.90
2023,03,29,15,43,13.90
2023,03,29,15,44,13.80
2023,03,29,15,45,13.80
2023,03,29,15,46,13.80
2023,03,29,15,47,13.80
2023,03,29,15,48,13.80
2023,03,29,15,49,13.90
2023,03,29,15,50,13.90
2023,03,29,15,51,13.90
2023,03,29,15,52,14.00
2023,03,29,15,53,13.90
2023,03,29,15,54,13.90
2023,03,29,15,55,13.90
2023,03,29,15,56,13.90
2023,03,29,15,57,13.80
2023,03,29,15,58,13.80
2023,03,29,15,59,13.90
2023,03,29,16,00,13.90
2023,03,29,16,01,14.00
2023,03,29,16,02,14.10
2023,03,29,16,03,14.20
2023,03,29,16,04,14.20
2023,03,29,16,05,14.10
2023,03,29,16,06,14.10
2023,03,29,16,07,14.20
2023,03,29,16,08,14.20
2023,03,29,16,09,14.30
2023,03,29,16,10,14.30
2023,03,29,16,11,14.40
2023,03,29,16,12,14.50
2023,03,29,16,13,14.50
2023,03,29,16,14,14.40
2023,03,29,16,15,14.30
2023,03,29,16,16,14.30
2023,03,29,16,17,14.20
2023,03,29,16,18,14.20
2023,03,29,16,19,14.10
2023,03,29,16,20,14.10
2023,03,29,16,21,14.20
2023,03,29,16,22,14.20
2023,03,29,16,23,14.20
2023,03,29,16,24,14.20
2023,03,29,16,25,14.10
2023,03,29,16,26,14.00
2023,03,29,16,27,13.90
2023,03,29,16,28,13.90
2023,03,29,16,29,14.00
2023,03,29,16,30,14.00
2023,03,29,16,31,14.10
2023,03,29,16,32,14.10
2023,03,29,16,33,14.20
2023,03,29,16,34,14.30
2023,03,29,16,35,14.30
2023,03,29,16,36,14.30
2023,03,29,16,37,14.30
2023,03,29,16,38,14.30
2023,03,29,16,39,14.30
2023,03,29,16,40,14.30
2023,03,29,16,41,14.20
2023,03,29,16,42,14.20
2023,03,29,16,43,14.20
2023,03,29,16,44,14.20
2023,03,29,16,45,14.10
2023,03,29,16,46,14.10
2023,03,29,16,47,14.10
2023,03,29,16,48,14.10
2023,03,29,16,49,14.20
2023,03,29,16,50,14.20
2023,03,29,16,51,14.30
2023,03,29,16,52,14.30
2023,03,29,16,53,14.30
2023,03,29,16,54,14.40
2023,03,29,16,55,14.40
2023,03,29,16,56,14.50
2023,03,29,16,57,14.70
2023,03,29,16,58,14.80
2023,03,29,16,59,14.90
2023,03,29,17,00,15.00
2023,03,29,17,01,15.10
2023,03,29,17,02,15.20
2023,03,29,17,03,15.20
2023,03,29,17,04,15.30
2023,03,29,17,05,15.30
2023,03,29,17,06,15.40
2023,03,29,17,07,15.50
2023,03,29,17,08,15.60
2023,03,29,17,09,15.60
2023,03,29,17,10,15.60
2023,03,29,17,11,15.60
2023,03,29,17,12,15.60
2023,03,29,17,13,15.60
2023,03,29,17,14,15.50
2023,03,29,17,15,15.50
2023,03,29,17,16,15.50
2023,03,29,17,17,15.50
2023,03,29,17,18,15.40
2023,03,29,17,19,15.40
2023,03,29,17,20,15.40
2023,03,29,17,21,15.40
2023,03,29,17,22,15.40
2023,03,29,17,23,15.40
2023,03,29,17,24,15.40
2023,03,29,17,25,15.30
2023,03,29,17,26,15.30
2023,03,29,17,27,15.30
2023,03,29,17,28,15.20
2023,03,29,17,29,15.10
2023,03,29,17,30,15.10
2023,03,29,17,31,15.00
2023,03,29,17,32,15.00
2023,03,29,17,33,15.00
2023,03,29,17,34,14.90
2023,03,29,17,35,14.90
2023,03,29,17,36,14.90
2023,03,29,17,37,14.80
2023,03,29,17,38,14.70
2023,03,29,17,39,14.50
2023,03,29,17,40,14.40
2023,03,29,17,41,14.30
2023,03,29,17,42,14.30
2023,03,29,17,43,14.20
2023,03,29,17,44,14.20
2023,03,29,17,45,14.20
2023,03,29,17,46,14.20
2023,03,29,17,47,14.20
2023,03,29,17,48,14.20
2023,03,29,17,49,14.20
2023,03,29,17,50,14.20
2023,03,29,17,51,14.20
2023,03,29,17,52,14.20
2023,03,29,17,53,14.20
2023,03,29,17,54,14.20
2023,03,29,17,55,14.20
2023,03,29,17,56,14.20
2023,03,29,17,57,14.20
2023,03,29,17,58,14.20
2023,03,29,17,59,14.20
2023,03,29,18,00,14.20
2023,03,29,18,01,14.20
2023,03,29,18,02,14.20
2023,03,29,18,03,14.20
2023,03,29,18,04,14.10
2023,03,29,18,05,14.10
2023,03,29,18,06,14.10
2023,03,29,18,07,14.00
2023,03,29,18,08,14.00
2023,03,29,18,09,13.90
2023,03,29,18,10,13.90
2023,03,29,18,11,13.80
2023,03,29,18,12,13.80
2023,03,29,18,13,13.70
2023,03,29,18,14,13.70
2023,03,29,18,15,13.60
2023,03,29,18,16,13.60
2023,03,29,18,17,13.60
2023,03,29,18,18,13.60
2023,03,29,18,19,13.60
2023,03,29,18,20,13.60
2023,03,29,18,21,13.60
2023,03,29,18,22,13.60
2023,03,29,18,23,13.60
2023,03,29,18,24,13.60
2023,03,29,18,25,13.60
2023,03,29,18,26,13.60
2023,03,29,18,27,13.70
2023,03,29,18,28,13.70
2023,03,29,18,29,13.70
2023,03,29,18,30,13.70
2023,03,29,18,31,13.70
2023,03,29,18,32,13.70
2023,03,29,18,33,13.80
2023,03,29,18,34,13.80
2023,03,29,18,35,13.80
2023,03,29,18,36,13.80
2023,03,29,18,37,13.70
2023,03,29,18,38,13.70
2023,03,29,18,39,13.70
2023,03,29,18,40,13.70
2023,03,29,18,41,13.60
2023,03,29,18,42,13.60
2023,03,29,18,43,13.60
2023,03,29,18,44,13.60
2023,03,29,18,45,13.60
2023,03,29,18,46,13.60
2023,03,29,18,47,13.70
2023,03,29,18,48,13.70
2023,03,29,18,49,13.70
2023,03,29,18,50,13.70
2023,03,29,18,51,13.60
2023,03,29,18,52,13.60
2023,03,29,18,53,13.60
2023,03,29,18,54,13.60
2023,03,29,18,55,13.50
2023,03,29,18,56,13.50
2023,03,29,18,57,13.50
2023,03,29,18,58,13.50
2023,03,29,18,59,13.50
2023,03,29,19,00,13.50
2023,03,29,19,01,13.50
2023,03,29,19,02,13.50
2023,03,29,19,03,13.50
2023,03,29,19,04,13.50
2023,03,29,19,05,13.50
2023,03,29,19,06,13.50
2023,03,29,19,07,13.50
2023,03,29,19,08,13.40
2023,03,29,19,09,13.40
2023,03,29,19,10,13.40
2023,03,29,19,11,13.40
2023,03,29,19,12,13.40
2023,03,29,19,13,13.40
2023,03,29,19,14,13.40
2023,03,29,19,15,13.40
2023,03,29,19,16,13.40
2023,03,29,19,17,13.40
2023,03,29,19,18,13.40
2023,03,29,19,19,13.40
2023,03,29,19,20,13.30
2023,03,29,19,21,13.30
2023,03,29,19,22,13.30
2023,03,29,19,23,13.30
2023,03,29,19,24,13.30
2023,03,29,19,25,13.20
2023,03,29,19,26,13.20
2023,03,29,19,27,13.20
2023,03,29,19,28,13.10
2023,03,29,19,29,13.10
2023,03,29,19,30,13.10
2023,03,29,19,31,13.10
2023,03,29,19,32,13.00
2023,03,29,19,33,12.90
2023,03,29,19,34,12.90
2023,03,29,19,35,12.90
2023,03,29,19,36,12.80
2023,03,29,19,37,12.80
2023,03,29,19,38,12.70
2023,03,29,19,39,12.60
2023,03,29,19,40,12.60
2023,03,29,19,41,12.50
2023,03,29,19,42,12.30
2023,03,29,19,43,12.20
2023,03,29,19,44,12.10
2023,03,29,19,45,12.00
2023,03,29,19,46,11.90
2023,03,29,19,47,11.80
2023,03,29,19,48,11.70
2023,03,29,19,49,11.60
2023,03,29,19,50,11.60
2023,03,29,19,51,11.50
2023,03,29,19,52,11.40
2023,03,29,19,53,11.30
2023,03,29,19,54,11.30
2023,03,29,19,55,11.20
2023,03,29,19,56,11.10
2023,03,29,19,57,11.00
2023,03,29,19,58,11.00
2023,03,29,19,59,10.90
2023,03,29,20,00,10.80
2023,03,29,20,01,10.80
2023,03,29,20,02,10.70
2023,03,29,20,03,10.70
2023,03,29,20,04,10.60
2023,03,29,20,05,10.60
2023,03,29,20,06,10.50
2023,03,29,20,07,10.50
2023,03,29,20,08,10.40
2023,03,29,20,09,10.40
2023,03,29,20,10,10.40
2023,03,29,20,11,10.30
2023,03,29,20,12,10.30
2023,03,29,20,13,10.30
2023,03,29,20,14,10.30
2023,03,29,20,15,10.30
2023,03,29,20,16,10.30
2023,03,29,20,17,10.30
2023,03,29,20,18,10.30
2023,03,29,20,19,10.20
2023,03,29,20,20,10.20
2023,03,29,20,21,10.20
2023,03,29,20,22,10.20
2023,03,29,20,23,10.20
2023,03,29,20,24,10.20
2023,03,29,20,25,10.20
2023,03,29,20,26,10.20
2023,03,29,20,27,10.20
2023,03,29,20,28,10.20
2023,03,29,20,29,10.20
2023,03,29,20,30,10.30
2023,03,29,20,31,10.30
2023,03,29,20,32,10.30
2023,03,29,20,33,10.30
2023,03,29,20,34,10.30
2023,03,29,20,35,10.30
2023,03,29,20,36,10.30
2023,03,29,20,37,10.30
2023,03,29,20,38,10.30
2023,03,29,20,39,10.30
2023,03,29,20,40,10.30
2023,03,29,20,41,10.30
2023,03,29,20,42,10.20
2023,03,29,20,43,10.20
2023,03,29,20,44,10.20
2023,03,29,20,45,10.20
2023,03,29,20,46,10.20
2023,03,29,20,47,10.20
2023,03,29,20,48,10.20
2023,03,29,20,49,10.20
2023,03,29,20,50,10.20
2023,03,29,20,51,10.20
2023,03,29,20,52,10.20
2023,03,29,20,53,10.20
2023,03,29,20,54,10.20
2023,03,29,20,55,10.20
2023,03,29,20,56,10.10
2023,03,29,20,57,10.10
2023,03,29,20,58,10.10
2023,03,29,20,59,10.10
2023,03,29,21,00,10.10
2023,03,29,21,01,10.00
2023,03,29,21,02,10.00
2023,03,29,21,03,9.90
2023,03,29,21,04,9.90
2023,03,29,21,05,9.90
2023,03,29,21,06,9.80
2023,03,29,21,07,9.80
2023,03,29,21,08,9.80
2023,03,29,21,09,9.70
2023,03,29,21,10,9.60
2023,03,29,21,11,9.60
2023,03,29,21,12,9.60
2023,03,29,21,13,9.50
2023,03,29,21,14,9.50
2023,03,29,21,15,9.40
2023,03,29,21,16,9.40
2023,03,29,21,17,9.40
2023,03,29,21,18,9.30
2023,03,29,21,19,9.30
2023,03,29,21,20,9.30
2023,03,29,21,21,9.20
2023,03,29,21,22,9.20
2023,03,29,21,23,9.20
2023,03,29,21,24,9.20
2023,03,29,21,25,9.20
2023,03,29,21,26,9.10
2023,03,29,21,27,9.10
2023,03,29,21,28,9.10
2023,03,29,21,29,9.10
2023,03,29,21,30,9.10
2023,03,29,21,31,9.00
2023,03,29,21,32,9.00
2023,03,29,21,33,8.90
2023,03,29,21,34,8.90
2023,03,29,21,35,8.90
2023,03,29,21,36,8.90
2023,03,29,21,37,8.90
2023,03,29,21,38,8.80
2023,03,29,21,39,8.90
2023,03,29,21,40,8.80
2023,03,29,21,41,8.80
2023,03,29,21,42,8.80
2023,03,29,21,43,8.80
2023,03,29,21,44,8.80
2023,03,29,21,45,8.80
2023,03,29,21,46,8.80
2023,03,29,21,47,8.80
2023,03,29,21,48,8.70
2023,03,29,21,49,8.70
2023,03,29,21,50,8.70
2023,03,29,21,51,8.60
2023,03,29,21,52,8.60
2023,03,29,21,53,8.60
2023,03,29,21,54,8.50
2023,03,29,21,55,8.50
2023,03,29,21,56,8.40
2023,03,29,21,57,8.40
2023,03,29,21,58,8.50
2023,03,29,21,59,8.50
2023,03,29,22,00,8.50
2023,03,29,22,01,8.50
2023,03,29,22,02,8.60
2023,03,29,22,03,8.60
2023,03,29,22,04,8.60
2023,03,29,22,05,8.50
2023,03,29,22,06,8.50
2023,03,29,22,07,8.50
2023,03,29,22,08,8.50
2023,03,29,22,09,8.50
2023,03,29,22,10,8.50
2023,03,29,22,11,8.50
2023,03,29,22,12,8.50
2023,03,29,22,13,8.40
2023,03,29,22,14,8.40
2023,03,29,22,15,8.40
2023,03,29,22,16,8.40
2023,03,29,22,17,8.40
2023,03,29,22,18,8.30
2023,03,29,22,19,8.30
2023,03,29,22,20,8.30
2023,03,29,22,21,8.30
2023,03,29,22,22,8.40
2023,03,29,22,23,8.40
2023,03,29,22,24,8.40
2023,03,29,22,25,8.40
2023,03,29,22,26,8.40
2023,03,29,22,27,8.40
2023,03,29,22,28,8.40
2023,03,29,22,29,8.40
2023,03,29,22,30,8.30
2023,03,29,22,31,8.30
2023,03,29,22,32,8.30
2023,03,29,22,33,8.30
2023,03,29,22,34,8.30
2023,03,29,22,35,8.30
2023,03,29,22,36,8.20
2023,03,29,22,37,8.20
2023,03,29,22,38,8.20
2023,03,29,22,39,8.20
2023,03,29,22,40,8.20
2023,03,29,22,41,8.20
2023,03,29,22,42,8.20
2023,03,29,22,43,8.20
2023,03,29,22,44,8.10
2023,03,29,22,45,8.10
2023,03,29,22,46,8.10
2023,03,29,22,47,8.00
2023,03,29,22,48,8.00
2023,03,29,22,49,8.00
2023,03,29,22,50,7.90
2023,03,29,22,51,7.90
2023,03,29,22,52,7.90
2023,03,29,22,53,7.90
2023,03,29,22,54,7.90
2023,03,29,22,55,7.80
2023,03,29,22,56,7.80
2023,03,29,22,57,7.80
2023,03,29,22,58,7.80
2023,03,29,22,59,7.80
2023,03,29,23,00,7.80
2023,03,29,23,01,7.80
2023,03,29,23,02,7.80
2023,03,29,23,03,7.80
2023,03,29,23,04,7.70
2023,03,29,23,05,7.70
2023,03,29,23,06,7.70
2023,03,29,23,07,7.70
2023,03,29,23,08,7.70
2023,03,29,23,09,7.70
2023,03,29,23,10,7.70
2023,03,29,23,11,7.70
2023,03,29,23,12,7.70
2023,03,29,23,13,7.70
2023,03,29,23,14,7.70
2023,03,29,23,15,7.70
2023,03,29,23,16,7.70
2023,03,29,23,17,7.70
2023,03,29,23,18,7.70
2023,03,29,23,19,7.70
2023,03,29,23,20,7.70
2023,03,29,23,21,7.70
2023,03,29,23,22,7.70
2023,03,29,23,23,7.80
2023,03,29,23,24,7.80
2023,03,29,23,25,7.80
2023,03,29,23,26,7.80
2023,03,29,23,27,7.80
2023,03,29,23,28,7.80
2023,03,29,23,29,7.80
2023,03,29,23,30,7.80
2023,03,29,23,31,7.80
2023,03,29,23,32,7.80
2023,03,29,23,33,7.80
2023,03,29,23,34,7.80
2023,03,29,23,35,7.80
2023,03,29,23,36,7.80
2023,03,29,23,37,7.80
2023,03,29,23,38,7.80
2023,03,29,23,39,7.70
2023,03,29,23,40,7.70
2023,03,29,23,41,7.70
2023,03,29,23,42,7.70
2023,03,29,23,43,7.70
2023,03,29,23,44,7.70
2023,03,29,23,45,7.70
2023,03,29,23,46,7.60
2023,03,29,23,47,7.60
2023,03,29,23,48,7.60
2023,03,29,23,49,7.70
2023,03,29,23,50,7.70
2023,03,29,23,51,7.70
2023,03,29,23,52,7.70
2023,03,29,23,53,7.70
2023,03,29,23,54,7.70
2023,03,29,23,55,7.70
2023,03,29,23,56,7.60
2023,03,29,23,57,7.60
2023,03,29,23,58,7.60
2023,03,29,23,59,7.60
